Погода в Батхинде

Индия     30°12′40″N   74°56′42″E
темп.,
°C
ветер,
м/с
пор.,
м/с
влажн.,
%
обл.,
%
осадки,
мм/ч
давл.,
гПа
погр.,
м
4 марта, чт
чт423:30+18ю23190 0.0 101123
02:30+15вюв12210 0.0 101123
05:30+14всв232221 0.0 100923
08:30+20в34160 0.0 1012130
11:30+31юв3280 0.0 1012933
14:30+34юз2480 0.0 10084234
17:30+32зюз2280 0.0 100787
20:30+20зюз11170 0.0 100923
5 марта, пт
пт523:30+19св34190 0.0 101044
02:30+16св23250 0.0 100923
05:30+14ссз22290 0.0 100923
08:30+20ссз23200 0.0 1012111
11:30+32сз4690 0.0 10122496
14:30+35сз6760 0.0 10083405
17:30+32сз5770 0.0 10073065
20:30+21ссз34140 0.0 100923
6 марта, сб
сб623:30+17с34180 0.0 101034
02:30+15с23240 0.0 101023
05:30+13ссв11290 0.0 100923
08:30+21сз11180 0.0 101137
11:30+32зсз3370 0.0 10111060
14:30+35зсз4660 0.0 10083095
17:30+34з2470 0.0 10062788
20:30+22всв23130 0.0 100723
7 марта, вс
вс723:30+20в47140 0.0 100795
02:30+19вюв451849 0.0 100779
05:30+19в591770 0.1 1005151
08:30+21в4425100 0.1 1007113
11:30+32юв561498 0.1 1007990
14:30+36ю5614100 0.0 10032553
17:30+35ю3814100 0.0 10023589
20:30+17св5147459 1.1 1005267
8 марта, пн
пн823:30+16в477629 1.1 1006115
02:30+15в23700 0.0 100724
05:30+13в23790 0.0 100723
08:30+17в34630 0.0 1010137
11:30+31вюв33180 0.0 1011824
14:30+35сз2360 0.0 10084258
17:30+34зсз4360 0.0 10073891
20:30+23ссз34140 0.0 100952